Find Starlink 31129

NORAD ID: 58624 Int'l Des: 2023-203 Owner: SPXS Country: US Constellation: starlink operational
LEOCIRCULAR

实时位置

正在加载3D地球...

关于 Starlink 31129

正在加载描述...

即将过境

Passes for default location (London). Set your location on the main map for personalized predictions.

高度历史

Loading altitude history...

两行轨道根数

1 58624U 23203G 26132.52225690 .00024592 00000-0 89864-3 0 9990
2 58624 43.0071 66.6122 0001382 279.3945 80.6751 15.27637776133328
Epoch: May 12, 2026 • Age: 18 hours

当前状态

高度 485.0 km
速度 7.63 km/s
星下点 35.69°N, 150.72°E
发射日期 Dec 23, 2023
运行时间 2.3 years
类型 internet

技术详情

分类 Payload
质量 730.00 kg
干质量 700.00 kg
总质量 730.00 kg
长度 0.30 m
直径 4.10 m
跨度 29.00 m
形状 Box + pan
制造商 SPXS
平台类型 Starlink V2M
阶段状态 In Orbit
所有者/国家 SPXS/US

Most Searched